Preview of NWS' New Version of Forecast
This preview is not operational and should not be used for support decisions.

Regional Weather Roundup (RWR)

Issued by National Weather Service (NWS)

                            
000
ASUS42 KTBW 212015
RWRFL 
FLORIDA REGIONAL WEATHER ROUNDUP
NATIONAL WEATHER SERVICE TAMPA BAY RUSKIN FL
400 PM EDT SUN APR 21 2019

NOTE: "FAIR" INDICATES FEW OR NO CLOUDS BELOW 12,000 FEET WITH NO
SIGNIFICANT WEATHER AND/OR OBSTRUCTIONS TO VISIBILITY.

FLZ001>010-012>015-112-114-115-212100-
PANHANDLE FLORIDA
  
CITY           SKY/WX    TMP DP  RH WIND       PRES   REMARKS
PENSACOLA      FAIR      74  33  22 S12       30.13F                  
PENSACOLA NAS  FAIR      73  43  33 S12       30.14F                  
MILTON NAS     FAIR      77  34  21 CALM      30.12F                  
CRESTVIEW      FAIR      78  31  17 W6        30.13F                  
DUKE FIELD     FAIR      78  28  16 N7        30.11                   
VALPARAISO     FAIR      73  37  26 S10       30.12F                  
MARY ESTHER    SUNNY     72  36  27 SW13      30.13S                  
PANAMA CITY    FAIR      75  38  26 S13G22    30.11F                  
TYNDALL AFB    FAIR      73  38  28 W15       30.12                   
APALACHICOLA   FAIR      73  43  33 SW14      30.12F                  

STATION/POSITION SKY/WX   TEMP    WIND        PRES    WAVE   SWELL
                          AIR SEA DIR/SP/G            HT/PER HT/PER
                          (F)     (DEG/KT/KT) (MB)    (FT/S) (FT/S)
30.1N   87.6W                                 1021.4F   1/ 6   2/ 6
29.2N   88.2W                      90/  4/  6 1021.7F   1/ 6   2/ 6
PANAMA CITY BEAC           68 70  230/ 11/ 13 1020.8F
TOWER C          NOT AVBL

$$
FLZ011-016>038-118-127-128-134-139-239-212100-
NORTH FLORIDA
  
CITY           SKY/WX    TMP DP  RH WIND       PRES   REMARKS
MARIANNA       FAIR      76  36  23 NE5       30.11F                  
TALLAHASSEE    FAIR      75  36  24 VRB3      30.11F                  
PERRY          FAIR      76  37  24 W10       30.12S                  
LIVE OAK       SUNNY     75  34  22 NW9G18    30.10S                  
CROSS CITY     FAIR      75  41  30 W10       30.11F                  
LAKE CITY      FAIR      72  37  28 NW7       30.10S                  
GAINESVILLE    FAIR      78  42  27 NW13G18   30.12F                  
PALATKA        FAIR      75  45  33 W10       30.09F                  
MAYPORT NAS    FAIR      75  41  29 W10       30.07F                  
JACKSONVILLE   FAIR      77  42  28 W15G22    30.07F                  
JAX NAS        FAIR      76  37  24 SW13      30.08F                  
JAX CECIL      SUNNY     79  39  24 W6G18     30.08F                  
FERNANDINA BEA FAIR      76  41  28 NW13G24   30.07F                  
ST AUGUSTINE   FAIR      74  45  35 NW8       30.09F                  
PALM COAST     SUNNY     73  43  33 CALM      30.09F                  

STATION/POSITION SKY/WX   TEMP    WIND        PRES    WAVE   SWELL
                          AIR SEA DIR/SP/G            HT/PER HT/PER
                          (F)     (DEG/KT/KT) (MB)    (FT/S) (FT/S)
SHELL POINT      NOT AVBL
KEATON BEACH               68     240/ 11/ 12 1020.2F
CEDAR KEY                  69     280/ 11/ 14 1020.2F
FERNANDINA                 74 70  240/  6/ 10 1018.9F
30.7N   81.3W                 68                N/A     2/ 9
MAYPORT                    72 69  260/  9/ 12 1018.4F
31.4N   80.9W              69 67  250/ 10/ 12 1018.0F   2/ 8   2/ 8
ST AUGUSTINE               68 74  120/  8/  8 1018.9F

$$
FLZ040-043>046-052-053-057-058-063-144-212100-
INTERIOR CENTRAL FLORIDA
  
CITY           SKY/WX    TMP DP  RH WIND       PRES   REMARKS
OCALA          FAIR      75  42  30 VRB3      30.11F                  
LEESBURG       FAIR      74  41  30 W12       30.10F                  
SANFORD        FAIR      75  41  29 NW9       30.09F                  
ORLANDO EXEC   FAIR      75  39  27 W13       30.10F                  
ORLANDO INTL   FAIR      76  40  27 NW7       30.09F                  
KISSIMMEE      FAIR      76  44  32 NW8       30.10F                  
WINTER HAVEN   FAIR      78  44  29 W9        30.11F                  
SEBRING        FAIR      77  46  32 NW10      30.09F                  
OKEECHOBEE     FAIR      77  43  29 W6        30.08F                  

$$
FLZ041-047-054-059-064-141-147-212100-
EAST CENTRAL FLORIDA
  
CITY           SKY/WX    TMP DP  RH WIND       PRES   REMARKS
ORMOND BEACH   SUNNY     73  43  33 N6G16     30.09F                  
DAYTONA BEACH  FAIR      75  45  34 W10       30.09F                  
DELAND         FAIR      75  43  31 W10       30.08F                  
NEW SMYRNA BEA SUNNY     73  46  38 E9        30.11F                  
JFK SPACE CTR  FAIR      73  50  43 CALM      30.08F                  
TITUSVILLE     SUNNY     79  43  27 NW6       30.09F                  
CAPE CANAVERAL FAIR      73  46  38 E8        30.08                   
PATRICK AFB    FAIR      75  50  41 NE8       30.08F                  
MELBOURNE      FAIR      77  48  35 NW8       30.08F                  
VERO BEACH     FAIR      75  51  43 N7        30.08F                  
FT PIERCE      FAIR      78  44  29 VRB7      30.08F                  
STUART         SUNNY     79  45  29 NW9       30.09F                  

STATION/POSITION SKY/WX   TEMP    WIND        PRES    WAVE   SWELL
                          AIR SEA DIR/SP/G            HT/PER HT/PER
                          (F)     (DEG/KT/KT) (MB)    (FT/S) (FT/S)
28.5N   80.2W              68      10/  8/ 10 1019.7F   2/ 9   2/ 9
28.9N   78.5W              70 78  290/ 16/ 21 1018.9F   5/ 8   2/ 8
TRIDENT PIER               72 77   60/ 10/ 13 1020.3F
28.4N   80.5W                 76                N/A     2/ 8
27.5N   80.2W                 75                N/A     2/ 9

$$
FLZ050-056-061-142-242-148-248-149-249-151-251-155-255-
160-260-212100-
WEST CENTRAL FLORIDA
  
CITY           SKY/WX    TMP DP  RH WIND       PRES   REMARKS
CRYSTAL RIVER  FAIR      72  41  33 W9        30.13S                  
INVERNESS      FAIR      75  41  29 W7        30.11F                  
BROOKSVILLE    FAIR      73  40  30 W10       30.13F                  
CLEARWATER AIR FAIR      70  43  37 N12       30.14S                  
ST PETE CLEARW FAIR      73  44  35 NW13      30.13F                  
TAMPA INTL     FAIR      75  45  34 W14G25    30.12F                  
PLANT CITY     FAIR      77  41  27 NW6       30.12F                  
MACDILL AFB    FAIR      74  46  37 W10       30.12S                  
PETER O KNIGHT FAIR      75  50  41 W9G16     30.12S                  
ST PETERSBURG  FAIR      72  50  45 S5        30.10F                  
SARASOTA       FAIR      76  48  37 W15       30.10F                  
VENICE         FAIR      77  50  38 NW15      30.12F                  

STATION/POSITION SKY/WX   TEMP    WIND        PRES    WAVE   SWELL
                          AIR SEA DIR/SP/G            HT/PER HT/PER
                          (F)     (DEG/KT/KT) (MB)    (FT/S) (FT/S)
27.3N   84.2W                 75                N/A     4/ 7
CLEARWATER BEACH           69 72  340/  5/  9 1020.7F
MIDDLE TAMPA BAY           69     300/ 14/ 17 1020.2F
VENICE                     71 76  310/ 13/ 15 1019.6F

$$
FLZ066-069-070-075>078-162-262-165-265-212100-
SOUTHWEST FLORIDA AND KEYS
  
CITY           SKY/WX    TMP DP  RH WIND       PRES   REMARKS
PUNTA GORDA    SUNNY     79  45  29 N6        30.10F                  
FT MYERS       FAIR      76  50  40 W7G18     30.09F                  
SOUTHWEST INTL FAIR      77  52  41 NW10      30.09F                  
NAPLES         FAIR      76  59  55 NW8       30.10F                  
IMMOKALEE      FAIR      81  52  36 W8        30.06F                  
MARATHON       FAIR      87  54  32 VRB7      30.09F                  
KEY WEST NAS   FAIR      79  60  52 N12       30.10F                  
KEY WEST INTL  FAIR      79  62  56 N9        30.10F                  

STATION/POSITION SKY/WX   TEMP    WIND        PRES    WAVE   SWELL
                          AIR SEA DIR/SP/G            HT/PER HT/PER
                          (F)     (DEG/KT/KT) (MB)    (FT/S) (FT/S)
NAPLES                     72 78  250/  8/ 11 1019.4F
DRY TORTUGAS               73      50/  9/ 11 1019.8F
SAND KEY                   73                 1019.4F
SOMBRERO KEY               74                 1018.6F

$$
FLZ067-068-071>074-168-172>174-212100-
SOUTHEAST FLORIDA 
  
CITY           SKY/WX    TMP DP  RH WIND       PRES   REMARKS
W PALM BEACH   FAIR      77  51  40 W10       30.09F                  
BOCA RATON     SUNNY     81  52  36 CALM      30.08F                  
FT LAUDER-EXEC FAIR      80  52  37 N6        30.07F                  
FT LAUDERDALE  FAIR      77  55  46 E9        30.07F                  
POMPANO BEACH  FAIR      77  54  44 E9        30.08F                  
PEMBROKE PINES FAIR      81  53  37 CALM      30.09F                  
OPA LOCKA      FAIR      80  54  40 SW12      30.08F                  
MIAMI          FAIR      80  54  40 W8        30.08F                  
WEST KENDALL   FAIR      82  54  37 N6        30.08F                  
HOMESTEAD      PTSUNNY   81  57  44 E7        30.07S                  

STATION/POSITION SKY/WX   TEMP    WIND        PRES    WAVE   SWELL
                          AIR SEA DIR/SP/G            HT/PER HT/PER
                          (F)     (DEG/KT/KT) (MB)    (FT/S) (FT/S)
PORT EVERGLADES            76     100/  4/  7 1018.7F
VIRGINIA KEY               75 80   60/  5/  7 1018.0F
LAKE WORTH                 72 78   70/  5/  7 1019.9F
SETTLEMENT POINT           72     280/  8/ 10 1019.3F

$$